WI1SKY Weather Reports


time (UTC)temp
C
wind
direction
speed
KPH
gust
KPH
rain 1hr
cm
rain 24hr
cm
rain mn
cm
humidity
%
barometer
mb
20260503050640 12 249 3.2 6.4 0.00 0.00 0.00 46 1009.4
20260503050135 12 257 1.6 6.4 0.00 0.00 0.00 46 1009.4
20260503045639 12 229 1.6 4.8 0.00 0.00 0.00 47 1009.4
20260503045305 12 189 3.2 4.8 0.00 0.00 0.00 46 1009.5
20260503045158 12 189 3.2 4.8 0.00 0.00 0.00 46 1009.4
20260503044133 12 189 3.2 4.8 0.00 0.00 0.00 46 1009.5
20260503043755 12 187 3.2 8.0 0.00 0.00 0.00 45 1009.6
20260503043657 12 189 3.2 6.4 0.00 0.00 0.00 46 1009.5
20260503042630 12 187 3.2 8.0 0.00 0.00 0.00 45 1009.6
20260503042134 12 188 3.2 4.8 0.00 0.00 0.00 45 1009.6
20260503041631 12 188 3.2 4.8 0.00 0.00 0.00 45 1009.7
20260503041132 12 188 3.2 4.8 0.00 0.00 0.00 45 1009.7
20260503040629 12 188 3.2 4.8 0.00 0.00 0.00 46 1009.7
20260503040233 12 188 4.8 6.4 0.00 0.00 0.00 45 1009.8
20260503040148 12 188 3.2 6.4 0.00 0.00 0.00 45 1009.8
20260503035129 12 188 3.2 6.4 0.00 0.00 0.00 45 1009.9
20260503034812 12 188 3.2 4.8 0.00 0.00 0.00 46 1010.0
20260503034658 12 188 3.2 4.8 0.00 0.00 0.00 46 1010.0
20260503033926 12 188 3.2 4.8 0.00 0.00 0.00 45 1010.1
20260503033915 12 188 1.6 4.8 0.00 0.00 0.00 45 1010.3
20260503033723 12 188 3.2 4.8 0.00 0.00 0.00 45 1010.1
20260503032134 12 188 1.6 4.8 0.00 0.00 0.00 45 1010.3
20260503031632 12 188 1.6 3.2 0.00 0.00 0.00 45 1010.3
20260503031133 12 188 1.6 4.8 0.00 0.00 0.00 45 1010.4
20260503030816 12 188 0.0 4.8 0.00 0.00 0.00 44 1010.6
20260503030700 12 188 1.6 4.8 0.00 0.00 0.00 45 1010.5
20260503025631 12 188 0.0 0.0 0.00 0.00 0.00 44 1010.7
20260503025133 12 188 0.0 0.0 0.00 0.00 0.00 44 1010.7
20260503024629 13 188 0.0 0.0 0.00 0.00 0.00 44 1010.7
20260503024129 13 188 0.0 1.6 0.00 0.00 0.00 43 1010.6
20260503023630 13 188 1.6 3.2 0.00 0.00 0.00 42 1010.7
20260503023128 13 188 1.6 3.2 0.00 0.00 0.00 41 1010.7
20260503022630 13 188 1.6 3.2 0.00 0.00 0.00 42 1010.7
20260503022129 13 188 1.6 4.8 0.00 0.00 0.00 41 1010.7
20260503021629 13 188 1.6 4.8 0.00 0.00 0.00 40 1010.7
20260503021129 13 188 0.0 3.2 0.00 0.00 0.00 40 1010.7
20260503020734 13 188 1.6 3.2 0.00 0.00 0.00 40 1010.6
20260503020650 13 188 1.6 3.2 0.00 0.00 0.00 40 1010.7
20260503015632 14 188 3.2 3.2 0.00 0.00 0.00 39 1010.7
20260503015130 14 188 3.2 4.8 0.00 0.00 0.00 39 1010.7
20260503014629 14 188 3.2 4.8 0.00 0.00 0.00 39 1010.7
20260503014134 14 260 1.6 4.8 0.00 0.00 0.00 39 1010.6
20260503013943 14 260 0.0 4.8 0.00 0.00 0.00 38 1010.7
20260503013729 14 260 1.6 3.2 0.00 0.00 0.00 39 1010.6
20260503013154 14 260 1.6 4.8 0.00 0.00 0.00 39 1010.6
20260503012129 14 260 0.0 0.0 0.00 0.00 0.00 37 1010.8
20260503011628 14 260 0.0 0.0 0.00 0.00 0.00 37 1010.8
20260503011252 14 260 3.2 4.8 0.00 0.00 0.00 37 1010.8
20260503011153 14 260 1.6 3.2 0.00 0.00 0.00 39 1010.8
20260503010133 14 260 1.6 4.8 0.00 0.00 0.00 37 1010.9
20260503005629 14 261 0.0 4.8 0.00 0.00 0.00 38 1010.8
20260503005129 15 261 0.0 1.6 0.00 0.00 0.00 39 1010.8
20260503004751 15 261 0.0 1.6 0.00 0.00 0.00 39 1010.9
20260503004653 15 261 0.0 1.6 0.00 0.00 0.00 40 1010.8
20260503003628 15 261 1.6 3.2 0.00 0.00 0.00 39 1010.9
20260503003132 15 261 1.6 3.2 0.00 0.00 0.00 37 1010.9
20260503002630 15 261 1.6 4.8 0.00 0.00 0.00 37 1011.0
20260503002129 15 261 1.6 4.8 0.00 0.00 0.00 38 1011.0
20260503001630 15 261 1.6 4.8 0.00 0.00 0.00 38 1011.0
20260503001129 15 261 1.6 4.8 0.00 0.00 0.00 38 1011.1
20260503001023 15 246 1.6 4.8 0.00 0.00 0.00 37 1011.1
20260503000952 15 265 3.2 4.8 0.00 0.00 0.00 38 1011.1
20260503000727 15 263 1.6 4.8 0.00 0.00 0.00 38 1011.0
20260502235159 16 266 3.2 11.3 0.00 0.00 0.00 35 1011.3
20260502235131 15 256 3.2 8.0 0.00 0.00 0.00 37 1011.3
20260502235126 16 248 4.8 12.9 0.00 0.00 0.00 37 1011.4
20260502235054 16 246 4.8 12.9 0.00 0.00 0.00 37 1011.4
20260502234745 16 292 4.8 9.7 0.00 0.00 0.00 37 1011.4
20260502232632 16 288 6.4 12.9 0.00 0.00 0.00 35 1011.4
20260502232129 16 293 6.4 11.3 0.00 0.00 0.00 38 1011.5
20260502231629 16 289 4.8 11.3 0.00 0.00 0.00 37 1011.5
20260502231242 16 248 6.4 12.9 0.00 0.00 0.00 36 1011.6
20260502231152 16 296 4.8 8.0 0.00 0.00 0.00 37 1011.5
20260502230300 16 288 4.8 11.3 0.00 0.00 0.00 35 1011.7
20260502230156 16 299 6.4 12.9 0.00 0.00 0.00 35 1011.6
20260502225129 16 324 6.4 11.3 0.00 0.00 0.00 36 1011.7
20260502224633 16 294 6.4 14.5 0.00 0.00 0.00 34 1011.7
20260502224128 16 292 8.0 16.1 0.00 0.00 0.00 35 1011.8
20260502223632 16 284 8.0 16.1 0.00 0.00 0.00 34 1011.9
20260502223128 16 248 8.0 16.1 0.00 0.00 0.00 34 1011.9
20260502222633 16 207 8.0 16.1 0.00 0.00 0.00 33 1012.0
20260502222129 17 240 6.4 16.1 0.00 0.00 0.00 34 1012.1
20260502221844 17 277 6.4 16.1 0.00 0.00 0.00 31 1012.1
20260502221657 17 247 6.4 11.3 0.00 0.00 0.00 33 1012.1
20260502220634 17 275 8.0 16.1 0.00 0.00 0.00 31 1012.1
20260502220129 17 278 11.3 17.7 0.00 0.00 0.00 33 1012.2
20260502215628 17 303 9.7 17.7 0.00 0.00 0.00 34 1012.2
20260502215326 17 242 6.4 14.5 0.00 0.00 0.00 32 1012.5
20260502215314 17 269 8.0 16.1 0.00 0.00 0.00 31 1012.4
20260502215147 17 297 6.4 17.7 0.00 0.00 0.00 33 1012.3
20260502214814 17 245 6.4 14.5 0.00 0.00 0.00 31 1012.3
20260502214243 17 273 8.0 16.1 0.00 0.00 0.00 30 1012.4
20260502212630 17 242 8.0 20.9 0.00 0.00 0.00 31 1012.5
20260502212130 17 292 8.0 20.9 0.00 0.00 0.00 32 1012.6
20260502211630 17 281 8.0 17.7 0.00 0.00 0.00 29 1012.7
20260502211134 17 252 8.0 17.7 0.00 0.00 0.00 31 1012.7
20260502210629 17 286 8.0 17.7 0.00 0.00 0.00 34 1012.8
20260502210129 17 284 8.0 14.5 0.00 0.00 0.00 35 1012.8
20260502205838 17 268 9.7 17.7 0.00 0.00 0.00 35 1013.0
20260502205658 17 304 8.0 17.7 0.00 0.00 0.00 35 1012.9
20260502204630 17 229 9.7 17.7 0.00 0.00 0.00 31 1013.0
20260502204543 17 284 8.0 19.3 0.00 0.00 0.00 32 1013.5
20260502204538 17 221 8.0 20.9 0.00 0.00 0.00 33 1013.3
20260502204515 17 224 8.0 19.3 0.00 0.00 0.00 34 1013.4
20260502204231 17 223 8.0 17.7 0.00 0.00 0.00 33 1013.0
20260502203639 17 279 8.0 17.7 0.00 0.00 0.00 34 1013.2
20260502203306 17 240 8.0 20.9 0.00 0.00 0.00 31 1013.3
20260502201123 17 220 6.4 14.5 0.00 0.00 0.00 35 1013.5
20260502200623 17 237 8.0 19.3 0.00 0.00 0.00 33 1013.5
20260502200341 17 237 6.4 16.1 0.00 0.00 0.00 37 1013.7
20260502200156 17 284 6.4 19.3 0.00 0.00 0.00 37 1013.6
20260502195122 17 249 8.0 24.1 0.00 0.00 0.00 35 1013.8
20260502194624 17 323 8.0 24.1 0.00 0.00 0.00 35 1013.9
20260502194120 17 278 8.0 22.5 0.00 0.00 0.00 35 1013.9
20260502193834 17 306 6.4 12.9 0.00 0.00 0.00 33 1014.0
20260502193648 17 269 6.4 14.5 0.00 0.00 0.00 35 1013.9
20260502193036 17 292 8.0 16.1 0.00 0.00 0.00 36 1014.2
20260502193023 17 285 6.4 14.5 0.00 0.00 0.00 36 1014.4
20260502192716 17 252 8.0 16.1 0.00 0.00 0.00 33 1014.1
20260502191112 17 229 8.0 14.5 0.00 0.00 0.00 39 1014.5
20260502190805 17 289 8.0 16.1 0.00 0.00 0.00 37 1014.6
20260502190641 17 290 8.0 16.1 0.00 0.00 0.00 32 1014.5
20260502185608 17 211 8.0 19.3 0.00 0.00 0.00 33 1014.6
20260502185109 17 238 8.0 19.3 0.00 0.00 0.00 37 1014.7
20260502184609 17 286 8.0 14.5 0.00 0.00 0.00 35 1014.8
20260502184108 17 288 8.0 14.5 0.00 0.00 0.00 35 1014.9
20260502183608 17 300 9.7 17.7 0.00 0.00 0.00 38 1015.0
20260502183317 17 300 9.7 20.9 0.00 0.00 0.00 35 1015.0
20260502183133 17 313 9.7 17.7 0.00 0.00 0.00 34 1015.0
20260502182803 17 245 8.0 14.5 0.00 0.00 0.00 35 1014.9
20260502182501 17 294 9.7 20.9 0.00 0.00 0.00 37 1015.1
20260502182210 17 304 8.0 17.7 0.00 0.00 0.00 34 1015.0
20260502180605 16 285 11.3 17.7 0.00 0.00 0.00 35 1015.2
20260502180104 16 300 11.3 17.7 0.00 0.00 0.00 35 1015.3
20260502164104 14 292 11.3 22.5 0.00 0.00 0.00 38 1016.0
20260502163606 14 312 11.3 20.9 0.00 0.00 0.00 38 1016.1
20260502163101 14 311 11.3 19.3 0.00 0.00 0.00 39 1016.1
20260502162829 14 311 9.7 16.1 0.00 0.00 0.00 40 1016.3
20260502162639 14 297 11.3 19.3 0.00 0.00 0.00 42 1016.2
20260502161605 14 295 9.7 17.7 0.00 0.00 0.00 42 1016.4
20260502161101 14 291 12.9 17.7 0.00 0.00 0.00 39 1016.4
20260502160605 14 321 11.3 19.3 0.00 0.00 0.00 42 1016.4
20260502152101 14 292 8.0 16.1 0.00 0.00 0.00 42 1016.8
20260502151604 13 322 4.8 11.3 0.00 0.00 0.00 45 1016.8
20260502151100 13 286 4.8 8.0 0.00 0.00 0.00 46 1016.8
20260502150602 13 291 4.8 11.3 0.00 0.00 0.00 44 1016.9
20260502130541 6 140 1.6 3.2 0.00 0.00 0.00 67 1017.6
20260502130245 5 140 1.6 3.2 0.00 0.00 0.00 73 1017.7
20260502130115 6 140 1.6 3.2 0.00 0.00 0.00 70 1017.7
20260502122532 2 140 0.0 0.0 0.00 0.00 0.00 83 1017.7
20260502122032 2 140 0.0 0.0 0.00 0.00 0.00 83 1017.7
20260502121530 2 140 0.0 0.0 0.00 0.00 0.00 83 1017.7
20260502121033 2 140 0.0 0.0 0.00 0.00 0.00 84 1017.6
20260502120529 2 140 0.0 0.0 0.00 0.00 0.00 85 1017.6
20260502115532 1 140 0.0 0.0 0.00 0.00 0.00 85 1017.5
20260502115032 1 140 0.0 0.0 0.00 0.00 0.00 85 1017.5
20260502114533 1 140 0.0 0.0 0.00 0.00 0.00 84 1017.4
20260502114030 1 140 0.0 0.0 0.00 0.00 0.00 84 1017.4
20260502113735 1 140 0.0 0.0 0.00 0.00 0.00 85 1017.4
20260502113601 1 140 0.0 0.0 0.00 0.00 0.00 85 1017.4
20260502112529 1 140 0.0 0.0 0.00 0.00 0.00 84 1017.4
20260502112031 1 140 0.0 0.0 0.00 0.00 0.00 85 1017.4
20260502111532 1 140 0.0 0.0 0.00 0.00 0.00 85 1017.4
20260502111031 1 140 0.0 0.0 0.00 0.00 0.00 85 1017.4
20260502110532 1 140 0.0 0.0 0.00 0.00 0.00 84 1017.3
20260502110034 1 140 0.0 0.0 0.00 0.00 0.00 84 1017.3
20260502105531 1 140 0.0 0.0 0.00 0.00 0.00 84 1017.3
20260502105029 1 140 0.0 0.0 0.00 0.00 0.00 84 1017.4
20260502104531 1 140 0.0 0.0 0.00 0.00 0.00 84 1017.4
20260502104029 1 140 0.0 0.0 0.00 0.00 0.00 83 1017.4
20260502103531 1 140 0.0 0.0 0.00 0.00 0.00 83 1017.4
20260502103029 1 140 0.0 0.0 0.00 0.00 0.00 84 1017.5
20260502102644 1 140 0.0 0.0 0.00 0.00 0.00 85 1017.5
20260502102546 1 140 0.0 0.0 0.00 0.00 0.00 85 1017.4
20260502101528 1 140 0.0 0.0 0.00 0.00 0.00 85 1017.4
20260502101032 1 140 0.0 0.0 0.00 0.00 0.00 85 1017.4
20260502100529 1 140 0.0 0.0 0.00 0.00 0.00 84 1017.4
20260502100342 1 140 0.0 0.0 0.00 0.00 0.00 85 1017.4
20260502100124 1 140 0.0 0.0 0.00 0.00 0.00 85 1017.5
20260502091101 1 140 0.0 0.0 0.00 0.00 0.00 84 1017.5
20260502065513 1 140 0.0 0.0 0.00 0.00 0.00 76 1017.6
20260502065013 1 140 0.0 0.0 0.00 0.00 0.00 74 1017.7
20260502064515 2 140 0.0 0.0 0.00 0.00 0.00 74 1017.7
20260502064012 2 140 0.0 0.0 0.00 0.00 0.00 73 1017.7
20260502063509 2 140 0.0 0.0 0.00 0.00 0.00 72 1017.7
20260502063010 2 140 0.0 0.0 0.00 0.00 0.00 71 1017.7
20260502062508 2 140 0.0 0.0 0.00 0.00 0.00 72 1017.7
20260502062008 2 140 0.0 0.0 0.00 0.00 0.00 70 1017.7
20260502061506 2 140 0.0 0.0 0.00 0.00 0.00 70 1017.7
20260502061010 2 140 0.0 0.0 0.00 0.00 0.00 69 1017.6
20260502060652 2 140 0.0 0.0 0.00 0.00 0.00 69 1017.6
20260502060531 2 140 0.0 0.0 0.00 0.00 0.00 69 1017.6
20260502055502 2 140 0.0 0.0 0.00 0.00 0.00 69 1017.6
20260502055011 2 140 0.0 0.0 0.00 0.00 0.00 68 1017.6
20260502054507 2 140 0.0 0.0 0.00 0.00 0.00 68 1017.6
20260502054008 2 140 0.0 0.0 0.00 0.00 0.00 69 1017.5
20260502053859 2 140 0.0 0.0 0.00 0.00 0.00 69 1017.6
20260502053611 2 140 0.0 0.0 0.00 0.00 0.00 71 1017.6
20260502053032 2 140 0.0 0.0 0.00 0.00 0.00 70 1017.6
20260502052001 3 140 0.0 0.0 0.00 0.00 0.00 68 1017.6
20260502051848 3 140 0.0 0.0 0.00 0.00 0.00 65 1017.5
20260502051601 3 140 0.0 0.0 0.00 0.00 0.00 66 1017.6
20260502051029 3 140 0.0 0.0 0.00 0.00 0.00 66 1017.5